Intintoli — WCX2709 — position and weather

sailwx.info

Track history (hours):
 
Tides and Currents Weather Stations Pressure Air Temp Water Temp Dewpoint Dewpoint Depression Visibility Wind Speed Wind Dir Waves Ship Positions

Intintoli

Owner: San Francisco Bay Area Water Emergency Transportation Authority, VALLEJO, CA. More information available from US FCC via Universal Licensing System and Coast Guard Vessel Documentation Center.

Last reported at 2017-Oct-18 19:24 UTC. Time now 2017-Oct-19 13:04 UTC.
Position N 38°06' W 122°16'.

Length 41 m.

Type: Passenger vessel. MMSI: 366989360.

Date/timePositionNaut miles runAvg speedWind from/ knotsBaromVisibWave heightAir tempDewpointWater temp
2017-Oct-18 19:24N 38°06' W 122°16'4 9.8
2017-Oct-18 19:00N 38°03' W 122°18'4 7.9
2017-Oct-18 18:30N 38°04' W 122°13'4 8.5
2017-Oct-18 18:01N 38°03' W 122°19'4 7.6
2017-Oct-18 17:30N 38°06' W 122°16'  
2017-Oct-14 04:15N 38°06' W 122°16'2 6.7
2017-Oct-14 04:01N 38°05' W 122°15'1427.2
2017-Oct-14 03:30N 37°54' W 122°25'612.1
2017-Oct-14 03:00N 37°48' W 122°24'611.3
2017-Oct-14 02:30N 37°53' W 122°25'1428.1
2017-Oct-14 02:00N 38°05' W 122°15'1 3.0
2017-Oct-14 01:31N 38°06' W 122°16'1 2.9
2017-Oct-14 01:01N 38°05' W 122°15'1427.2
2017-Oct-14 00:30N 37°54' W 122°25'612.6
2017-Oct-14 00:00N 37°48' W 122°24'1122.0
2017-Oct-13 23:31N 37°59' W 122°26'1120.2
2017-Oct-13 22:59N 38°06' W 122°16'0 0.1
2017-Oct-13 17:28N 38°06' W 122°16'0 0.6
2017-Oct-13 17:00N 38°06' W 122°16'713.4
2017-Oct-13 16:30N 38°01' W 122°22'1427.3
2017-Oct-13 16:00N 37°48' W 122°24'510.1
2017-Oct-13 15:30N 37°53' W 122°25'1428.5
2017-Oct-13 15:00N 38°04' W 122°15'2 3.4
2017-Oct-13 14:26N 38°06' W 122°16'921.1
2017-Oct-13 14:00N 37°60' W 122°24'1224.2
2017-Oct-13 13:30N 37°48' W 122°24'1224.0
2017-Oct-13 13:00N 37°60' W 122°25'912.7
2017-Oct-13 12:16N 38°06' W 122°16'0 0.0
2017-Oct-13 04:20N 38°06' W 122°16'2 5.9
2017-Oct-13 04:00N 38°04' W 122°15'1326.5
2017-Oct-13 03:31N 37°54' W 122°25'612.5
2017-Oct-13 03:00N 37°48' W 122°24'4 8.0
2017-Oct-13 02:31N 37°52' W 122°25'1428.7
2017-Oct-13 02:00N 38°04' W 122°15'2 4.2
2017-Oct-13 01:30N 38°06' W 122°16'1 2.3
2017-Oct-13 01:00N 38°05' W 122°15'1326.8
2017-Oct-13 00:31N 37°54' W 122°25'713.4
2017-Oct-13 00:01N 37°48' W 122°24'1223.6
2017-Oct-12 23:30N 37°60' W 122°25'1019.1
2017-Oct-12 23:00N 38°06' W 122°16'0 0.0
2017-Oct-12 17:06N 38°06' W 122°16'0 1.3
2017-Oct-12 16:54N 38°06' W 122°16'614.6
2017-Oct-12 16:30N 38°02' W 122°21'1428.3
2017-Oct-12 16:00N 37°48' W 122°24'611.1
2017-Oct-12 15:30N 37°53' W 122°26'1428.4
2017-Oct-12 15:00N 38°04' W 122°15'2 3.8
2017-Oct-12 14:30N 38°06' W 122°16'917.8
2017-Oct-12 14:00N 37°60' W 122°24'1224.4
2017-Oct-12 13:31N 37°48' W 122°24'1223.9
2017-Oct-12 13:00N 37°60' W 122°25'918.8
2017-Oct-12 12:30N 38°06' W 122°16'0 0.0
2017-Oct-12 03:26N 38°06' W 122°16'2 4.5
2017-Oct-12 03:00N 38°04' W 122°15'1427.6
2017-Oct-12 02:30N 37°53' W 122°25'4 8.5
2017-Oct-12 02:01N 37°49' W 122°24'3 6.6
2017-Oct-12 01:31N 37°52' W 122°25'1528.6
2017-Oct-12 01:00N 38°04' W 122°15'2 3.8
2017-Oct-12 00:30N 38°06' W 122°16'714.6
2017-Oct-12 00:00N 38°01' W 122°23'1326.6
2017-Oct-11 23:30N 37°48' W 122°24'0 0.0
2017-Oct-11 23:01N 37°48' W 122°24'1326.0
2017-Oct-11 22:30N 38°01' W 122°23'815.3
2017-Oct-11 21:59N 38°06' W 122°16'1 0.3
2017-Oct-11 18:56N 38°05' W 122°15'920.5
2017-Oct-11 18:30N 38°00' W 122°24'1223.4
2017-Oct-11 18:01N 37°49' W 122°25'1 2.4
2017-Oct-11 17:30N 37°48' W 122°24'1223.9
2017-Oct-11 17:01N 37°60' W 122°25'3 0.2
2017-Oct-11 00:01N 38°01' W 122°22'1427.0
2017-Oct-10 23:30N 37°48' W 122°24'0 0.0
2017-Oct-10 23:00N 37°48' W 122°24'1325.8
2017-Oct-10 22:30N 38°01' W 122°24'816.6
2017-Oct-10 22:00N 38°06' W 122°16'0 0.1
2017-Oct-10 18:56N 38°06' W 122°16'819.4
2017-Oct-10 18:31N 38°00' W 122°24'1223.5
2017-Oct-10 18:00N 37°49' W 122°25'1 2.4
2017-Oct-10 17:30N 37°48' W 122°24'1223.4
2017-Oct-10 17:00N 37°59' W 122°25'1011.5
2017-Oct-10 16:09N 38°06' W 122°15'1 8.6
2017-Oct-10 16:00N 38°04' W 122°15'1428.2
2017-Oct-10 15:31N 37°53' W 122°25'510.9
2017-Oct-10 15:00N 37°48' W 122°24'19 1.6
2017-Oct-10 03:19N 38°06' W 122°16'2 6.3
2017-Oct-10 03:00N 38°04' W 122°15'1326.7
2017-Oct-10 02:31N 37°53' W 122°25'5 9.8
2017-Oct-10 02:01N 37°49' W 122°24'4 7.2
2017-Oct-10 01:31N 37°52' W 122°25'1428.7
2017-Oct-10 01:00N 38°04' W 122°15'2 3.8
2017-Oct-10 00:30N 38°06' W 122°16'715.0
2017-Oct-10 00:00N 38°01' W 122°23'1326.4
2017-Oct-09 23:30N 37°48' W 122°24'0 0.2
2017-Oct-09 23:00N 37°48' W 122°24'1325.8
2017-Oct-09 22:30N 38°01' W 122°24'812.1
2017-Oct-09 21:50N 38°06' W 122°16'0 0.1
2017-Oct-09 18:51N 38°06' W 122°16'619.4
2017-Oct-09 18:31N 38°01' W 122°22'1326.1
2017-Oct-09 18:00N 37°49' W 122°25'1 2.4
2017-Oct-09 17:30N 37°48' W 122°24'1325.1
2017-Oct-09 17:01N 38°00' W 122°24'917.2
2017-Oct-09 16:30N 38°06' W 122°16'2 4.0
2017-Oct-09 16:00N 38°04' W 122°15'1428.1
2017-Oct-09 15:31N 37°53' W 122°25'510.0
2017-Oct-09 14:59N 37°48' W 122°24'1224.4
2017-Oct-09 14:28N 38°00' W 122°24'8 0.7
2017-Oct-09 02:12N 38°04' W 122°15'629.4
2017-Oct-09 02:01N 38°02' W 122°22'1427.7
2017-Oct-09 01:31N 37°48' W 122°24'2 4.6
2017-Oct-09 01:01N 37°50' W 122°24'1529.1
2017-Oct-09 00:31N 38°03' W 122°17'3 5.3
2017-Oct-09 00:00N 38°06' W 122°16'0 0.0
2017-Oct-08 23:30N 38°06' W 122°16'917.4
2017-Oct-08 23:01N 38°00' W 122°24'1223.1
2017-Oct-08 22:30N 37°49' W 122°25'1 2.4
2017-Oct-08 22:00N 37°48' W 122°24'1224.3
2017-Oct-08 21:31N 37°60' W 122°24'912.1
2017-Oct-08 20:45N 38°06' W 122°16'  
Track history (hours):
 
Tides and Currents Weather Stations Pressure Air Temp Water Temp Dewpoint Dewpoint Depression Visibility Wind Speed Wind Dir Waves Ship Positions

Intintoli

Owner: San Francisco Bay Area Water Emergency Transportation Authority, VALLEJO, CA. More information available from US FCC via Universal Licensing System and Coast Guard Vessel Documentation Center.

Last reported at 2017-Oct-18 19:24 UTC. Time now 2017-Oct-19 13:04 UTC.
Position N 38°06' W 122°16'.

Length 41 m.

Type: Passenger vessel. MMSI: 366989360.

Date/timePositionNaut miles runAvg speedWind from/ knotsBaromVisibWave heightAir tempDewpointWater temp
2017-Oct-18 19:24N 38°06' W 122°16'4 9.8
2017-Oct-18 19:00N 38°03' W 122°18'4 7.9
2017-Oct-18 18:30N 38°04' W 122°13'4 8.5
2017-Oct-18 18:01N 38°03' W 122°19'4 7.6
2017-Oct-18 17:30N 38°06' W 122°16'  
2017-Oct-14 04:15N 38°06' W 122°16'2 6.7
2017-Oct-14 04:01N 38°05' W 122°15'1427.2
2017-Oct-14 03:30N 37°54' W 122°25'612.1
2017-Oct-14 03:00N 37°48' W 122°24'611.3
2017-Oct-14 02:30N 37°53' W 122°25'1428.1
2017-Oct-14 02:00N 38°05' W 122°15'1 3.0
2017-Oct-14 01:31N 38°06' W 122°16'1 2.9
2017-Oct-14 01:01N 38°05' W 122°15'1427.2
2017-Oct-14 00:30N 37°54' W 122°25'612.6
2017-Oct-14 00:00N 37°48' W 122°24'1122.0
2017-Oct-13 23:31N 37°59' W 122°26'1120.2
2017-Oct-13 22:59N 38°06' W 122°16'0 0.1
2017-Oct-13 17:28N 38°06' W 122°16'0 0.6
2017-Oct-13 17:00N 38°06' W 122°16'713.4
2017-Oct-13 16:30N 38°01' W 122°22'1427.3
2017-Oct-13 16:00N 37°48' W 122°24'510.1
2017-Oct-13 15:30N 37°53' W 122°25'1428.5
2017-Oct-13 15:00N 38°04' W 122°15'2 3.4
2017-Oct-13 14:26N 38°06' W 122°16'921.1
2017-Oct-13 14:00N 37°60' W 122°24'1224.2
2017-Oct-13 13:30N 37°48' W 122°24'1224.0
2017-Oct-13 13:00N 37°60' W 122°25'912.7
2017-Oct-13 12:16N 38°06' W 122°16'0 0.0
2017-Oct-13 04:20N 38°06' W 122°16'2 5.9
2017-Oct-13 04:00N 38°04' W 122°15'1326.5
2017-Oct-13 03:31N 37°54' W 122°25'612.5
2017-Oct-13 03:00N 37°48' W 122°24'4 8.0
2017-Oct-13 02:31N 37°52' W 122°25'1428.7
2017-Oct-13 02:00N 38°04' W 122°15'2 4.2
2017-Oct-13 01:30N 38°06' W 122°16'1 2.3
2017-Oct-13 01:00N 38°05' W 122°15'1326.8
2017-Oct-13 00:31N 37°54' W 122°25'713.4
2017-Oct-13 00:01N 37°48' W 122°24'1223.6
2017-Oct-12 23:30N 37°60' W 122°25'1019.1
2017-Oct-12 23:00N 38°06' W 122°16'0 0.0
2017-Oct-12 17:06N 38°06' W 122°16'0 1.3
2017-Oct-12 16:54N 38°06' W 122°16'614.6
2017-Oct-12 16:30N 38°02' W 122°21'1428.3
2017-Oct-12 16:00N 37°48' W 122°24'611.1
2017-Oct-12 15:30N 37°53' W 122°26'1428.4
2017-Oct-12 15:00N 38°04' W 122°15'2 3.8
2017-Oct-12 14:30N 38°06' W 122°16'917.8
2017-Oct-12 14:00N 37°60' W 122°24'1224.4
2017-Oct-12 13:31N 37°48' W 122°24'1223.9
2017-Oct-12 13:00N 37°60' W 122°25'918.8
2017-Oct-12 12:30N 38°06' W 122°16'0 0.0
2017-Oct-12 03:26N 38°06' W 122°16'2 4.5
2017-Oct-12 03:00N 38°04' W 122°15'1427.6
2017-Oct-12 02:30N 37°53' W 122°25'4 8.5
2017-Oct-12 02:01N 37°49' W 122°24'3 6.6
2017-Oct-12 01:31N 37°52' W 122°25'1528.6
2017-Oct-12 01:00N 38°04' W 122°15'2 3.8
2017-Oct-12 00:30N 38°06' W 122°16'714.6
2017-Oct-12 00:00N 38°01' W 122°23'1326.6
2017-Oct-11 23:30N 37°48' W 122°24'0 0.0
2017-Oct-11 23:01N 37°48' W 122°24'1326.0
2017-Oct-11 22:30N 38°01' W 122°23'815.3
2017-Oct-11 21:59N 38°06' W 122°16'1 0.3
2017-Oct-11 18:56N 38°05' W 122°15'920.5
2017-Oct-11 18:30N 38°00' W 122°24'1223.4
2017-Oct-11 18:01N 37°49' W 122°25'1 2.4
2017-Oct-11 17:30N 37°48' W 122°24'1223.9
2017-Oct-11 17:01N 37°60' W 122°25'3 0.2
2017-Oct-11 00:01N 38°01' W 122°22'1427.0
2017-Oct-10 23:30N 37°48' W 122°24'0 0.0
2017-Oct-10 23:00N 37°48' W 122°24'1325.8
2017-Oct-10 22:30N 38°01' W 122°24'816.6
2017-Oct-10 22:00N 38°06' W 122°16'0 0.1
2017-Oct-10 18:56N 38°06' W 122°16'819.4
2017-Oct-10 18:31N 38°00' W 122°24'1223.5
2017-Oct-10 18:00N 37°49' W 122°25'1 2.4
2017-Oct-10 17:30N 37°48' W 122°24'1223.4
2017-Oct-10 17:00N 37°59' W 122°25'1011.5
2017-Oct-10 16:09N 38°06' W 122°15'1 8.6
2017-Oct-10 16:00N 38°04' W 122°15'1428.2
2017-Oct-10 15:31N 37°53' W 122°25'510.9
2017-Oct-10 15:00N 37°48' W 122°24'19 1.6
2017-Oct-10 03:19N 38°06' W 122°16'2 6.3
2017-Oct-10 03:00N 38°04' W 122°15'1326.7
2017-Oct-10 02:31N 37°53' W 122°25'5 9.8
2017-Oct-10 02:01N 37°49' W 122°24'4 7.2
2017-Oct-10 01:31N 37°52' W 122°25'1428.7
2017-Oct-10 01:00N 38°04' W 122°15'2 3.8
2017-Oct-10 00:30N 38°06' W 122°16'715.0
2017-Oct-10 00:00N 38°01' W 122°23'1326.4
2017-Oct-09 23:30N 37°48' W 122°24'0 0.2
2017-Oct-09 23:00N 37°48' W 122°24'1325.8
2017-Oct-09 22:30N 38°01' W 122°24'812.1
2017-Oct-09 21:50N 38°06' W 122°16'0 0.1
2017-Oct-09 18:51N 38°06' W 122°16'619.4
2017-Oct-09 18:31N 38°01' W 122°22'1326.1
2017-Oct-09 18:00N 37°49' W 122°25'1 2.4
2017-Oct-09 17:30N 37°48' W 122°24'1325.1
2017-Oct-09 17:01N 38°00' W 122°24'917.2
2017-Oct-09 16:30N 38°06' W 122°16'2 4.0
2017-Oct-09 16:00N 38°04' W 122°15'1428.1
2017-Oct-09 15:31N 37°53' W 122°25'510.0
2017-Oct-09 14:59N 37°48' W 122°24'1224.4
2017-Oct-09 14:28N 38°00' W 122°24'8 0.7
2017-Oct-09 02:12N 38°04' W 122°15'629.4
2017-Oct-09 02:01N 38°02' W 122°22'1427.7
2017-Oct-09 01:31N 37°48' W 122°24'2 4.6
2017-Oct-09 01:01N 37°50' W 122°24'1529.1
2017-Oct-09 00:31N 38°03' W 122°17'3 5.3
2017-Oct-09 00:00N 38°06' W 122°16'0 0.0
2017-Oct-08 23:30N 38°06' W 122°16'917.4
2017-Oct-08 23:01N 38°00' W 122°24'1223.1
2017-Oct-08 22:30N 37°49' W 122°25'1 2.4
2017-Oct-08 22:00N 37°48' W 122°24'1224.3
2017-Oct-08 21:31N 37°60' W 122°24'912.1
2017-Oct-08 20:45N 38°06' W 122°16'  

Dump ship's entire track history